Theta_e
304 304 304 303 303 303 304 303 303 303 303 302 302 303 303 303 304 305 306 305 306 307 308 308 308 308 308 311 312 310 310 308 309 310 312 314 315 315 314 314 314 313 314 315 315 315 314
304 304 304 303 303 303 303 303 304 304 304 304 304 304 304 303 304 304 305 306 305 306 307 308 308 307 307 311 311 311 310 309 309 310 311 312 315 314 315 315 314 314 315 314 314 314 314
303 303 303 303 303 302 302 301 302 303 303 303 304 304 304 304 305 306 306 306 306 305 307 307 307 307 307 311 311 311 310 309 309 310 311 313 313 314 315 314 315 314 314 313 313 313 313
303 303 303 302 302 302 301 300 301 302 303 303 303 304 304 304 306 307 307 306 305 305 307 307 307 307 308 312 312 311 310 309 308 311 313 313 314 314 315 315 313 313 311 312 312 313 314
309 306 304 303 302 302 301 300 300 302 303 304 304 304 304 304 306 306 306 306 306 308 309 307 308 311 310 313 312 311 310 310 310 311 312 312 314 314 314 313 310 307 311 311 311 311 312
313 313 312 309 306 303 301 300 299 300 301 303 304 304 304 305 306 306 306 308 310 311 311 311 312 311 311 311 310 311 310 311 311 311 312 313 314 310 308 309 306 309 313 311 310 310 310
314 313 313 313 312 310 304 300 300 299 299 300 301 303 304 305 306 306 307 308 308 310 308 308 310 311 309 310 310 310 311 312 311 311 311 310 308 307 308 308 310 309 311 312 309 308 308
314 313 312 312 312 312 312 306 301 299 298 298 300 301 303 305 305 306 307 308 308 308 309 308 311 310 309 310 310 311 312 311 310 310 309 307 307 309 309 310 310 310 309 308 307 308 310
314 314 313 312 312 311 311 311 307 302 299 298 298 300 302 305 305 306 309 308 308 308 309 309 311 311 311 310 311 312 312 311 310 310 310 309 309 309 310 310 310 309 309 309 308 309 308
314 313 314 313 313 312 311 312 311 309 304 300 298 298 301 304 308 305 309 307 307 308 304 311 310 311 312 311 312 312 312 311 310 311 309 308 309 310 310 310 310 309 308 310 311 309 311
310 311 311 313 313 313 311 312 312 311 310 308 301 298 299 303 306 306 306 307 307 310 301 309 311 312 311 311 311 311 312 310 310 311 309 307 309 310 311 310 310 310 310 311 312 312 311
303 306 309 311 311 311 311 311 311 311 309 307 310 301 298 302 305 308 307 307 311 304 300 309 311 312 312 312 312 312 312 310 310 310 308 308 309 309 309 309 309 308 309 308 309 311 310
297 297 305 309 307 306 310 310 311 311 310 309 306 310 298 300 305 306 307 310 305 303 306 309 310 311 311 311 313 311 312 311 309 307 306 307 308 309 309 310 305 307 311 301 305 304 311
297 297 296 299 307 306 308 310 312 310 310 309 307 310 303 301 305 306 307 306 304 304 310 308 308 308 309 309 309 312 312 310 309 310 300 305 304 310 309 309 304 310 311 310 308 306 308
300 299 298 298 296 298 304 307 308 309 309 309 307 310 307 302 306 306 310 305 305 306 309 308 307 308 308 310 309 312 311 310 309 308 308 304 308 309 309 309 308 309 311 310 313 310 314
302 302 301 300 299 299 298 297 300 304 306 308 307 310 307 306 308 307 307 308 308 310 308 308 308 307 308 308 308 308 307 307 310 309 308 309 308 307 310 310 310 310 311 314 312 315 314
302 302 302 301 299 299 299 297 298 302 305 307 308 308 308 310 307 308 305 306 309 311 310 308 307 308 308 307 308 308 308 307 308 308 308 308 307 307 309 311 311 312 313 313 314 313 317
301 302 302 302 302 300 300 299 298 302 306 307 309 305 308 309 306 306 306 308 310 309 309 308 307 307 307 307 308 308 308 307 308 308 308 306 306 308 308 307 310 310 312 312 309 308 308
298 299 300 301 301 301 301 301 298 301 305 306 308 307 307 307 306 305 307 309 310 309 308 308 308 307 307 309 308 306 307 308 308 307 307 306 305 305 304 305 309 311 310 311 311 312 311
296 296 296 297 298 300 300 300 301 298 302 306 305 303 307 307 308 308 308 308 309 308 309 308 307 307 308 308 306 307 307 308 308 307 307 306 304 304 304 304 304 305 305 306 309 308 308
298 296 296 297 297 297 296 298 300 300 298 304 305 305 305 307 307 306 307 307 308 308 308 307 307 307 307 307 306 305 306 306 306 307 307 305 305 303 304 304 305 305 305 305 305 307 309
297 297 297 297 297 296 296 295 298 301 299 300 305 304 306 306 305 305 304 307 309 309 308 309 306 307 305 306 305 306 305 305 305 304 304 303 305 303 303 304 303 304 304 303 302 303 306
297 297 297 295 295 296 296 295 297 299 300 298 301 304 304 306 305 306 305 306 307 307 307 309 307 306 305 305 306 306 306 305 305 304 303 303 304 303 306 303 304 305 305 303 303 302 305
296 297 297 295 293 294 296 296 297 298 300 299 298 298 300 303 304 304 305 305 305 305 305 306 306 303 306 306 306 306 305 303 302 302 304 303 303 303 305 304 305 305 302 302 303 303 303
296 296 296 295 296 296 295 297 298 297 298 298 298 298 298 298 301 301 302 304 304 305 305 305 306 306 305 304 303 303 303 304 305 302 300 302 304 305 304 305 305 306 303 303 304 305 304
296 296 295 293 293 296 296 297 298 299 298 298 299 298 298 298 297 297 297 298 300 302 302 304 305 306 305 303 303 305 305 303 304 305 300 302 302 304 304 307 308 306 304 303 303 305 303
294 294 293 293 294 297 297 297 298 298 298 297 297 298 298 298 297 297 297 298 300 302 302 305 306 304 304 301 305 306 305 303 304 304 303 303 303 306 305 307 306 305 303 304 307 307 304
296 296 296 296 297 298 297 297 297 296 296 296 296 296 296 297 296 297 298 298 297 297 300 303 304 302 301 302 303 303 301 302 302 302 303 304 303 303 304 305 307 304 303 306 304 304 304
295 295 295 295 295 296 296 296 296 295 295 295 295 294 295 296 296 296 297 297 297 297 298 300 302 305 304 301 300 299 302 299 301 303 301 304 303 304 304 306 304 304 305 305 305 305 304
Wind_Speed
10 10 10 11 11 10 10 10 10 10 10 10 10 11 12 13 14 14 14 13 13 12 11 10 11 12 10 2 1 10 16 17 14 10 9 7 7 6 2 7 9 3 3 14 20 23 19
9 11 12 11 11 11 12 11 10 10 11 12 12 13 14 15 16 16 15 14 12 11 9 9 9 10 7 1 4 9 14 16 12 10 8 6 5 7 7 5 3 7 14 17 16 23 18
10 9 9 10 10 11 12 11 12 12 12 12 13 14 16 17 18 17 15 14 13 11 10 8 8 8 7 3 4 8 13 14 12 9 7 7 4 5 5 5 6 12 7 8 9 8 7
11 11 11 12 12 11 11 12 11 12 13 13 12 14 16 18 18 16 14 14 13 11 10 9 7 6 4 2 4 6 13 10 9 4 5 5 6 7 4 7 6 4 4 5 6 11 3
12 13 13 13 13 14 13 12 11 12 13 14 15 16 16 17 17 15 13 14 13 9 7 5 2 3 3 2 5 9 12 9 7 4 6 7 8 3 3 3 4 4 3 9 10 10 5
11 12 14 14 15 15 14 15 14 13 13 14 15 17 18 18 16 14 14 12 8 5 3 4 1 4 4 5 9 11 8 9 5 9 4 2 2 1 3 3 3 5 9 6 9 5 10
10 11 12 14 15 16 16 16 15 15 14 13 14 15 17 19 16 13 13 5 6 2 10 6 7 8 10 9 15 6 6 8 3 3 2 3 2 5 9 6 8 7 6 12 9 7 11
10 10 12 12 12 14 16 16 16 15 14 15 15 14 15 17 14 11 11 7 7 8 10 6 6 12 13 11 5 6 4 4 3 2 6 4 5 7 5 6 8 8 7 10 8 4 11
14 13 13 13 13 14 14 15 16 16 14 15 14 14 14 14 10 10 9 10 8 6 4 6 4 5 4 4 3 4 2 3 2 1 2 4 6 8 5 4 6 6 6 7 10 5 6
15 16 16 16 15 14 14 13 13 15 16 16 15 14 14 12 4 9 5 9 8 7 4 3 2 2 2 2 3 4 4 3 2 2 4 6 6 3 3 4 4 7 4 6 6 7 4
18 16 21 16 17 16 15 15 14 14 15 17 17 16 14 11 8 7 7 7 7 4 4 2 2 2 3 3 4 3 3 2 3 3 4 6 3 3 3 5 1 6 3 4 7 9 5
17 13 14 15 18 21 19 17 15 14 14 16 18 18 14 12 9 5 6 7 4 5 5 2 1 1 2 3 2 2 3 3 3 2 3 7 4 3 5 2 2 4 4 5 3 3 3
15 17 18 20 19 19 16 15 17 15 14 15 19 18 16 12 7 6 5 3 5 5 4 3 3 2 3 3 3 5 2 2 2 4 4 6 3 3 4 2 4 2 3 4 4 3 4
11 11 12 16 21 19 19 16 11 15 19 17 18 17 15 11 7 3 2 3 3 4 5 3 2 3 4 2 3 3 2 4 4 1 2 1 8 5 4 6 5 1 1 1 4 2 5
9 8 9 11 12 17 22 25 19 17 17 20 18 15 14 7 3 2 1 2 6 6 3 4 7 2 3 2 2 1 5 3 5 8 4 1 5 3 5 4 7 2 3 4 4 3 3
8 9 9 10 10 12 12 15 20 21 20 19 15 16 11 5 3 5 3 5 4 3 0 1 1 1 3 3 3 2 2 3 3 8 3 3 6 4 3 3 6 5 4 1 2 4 4
8 8 9 10 10 11 13 13 12 10 10 11 7 6 3 3 4 3 3 5 5 5 0 2 3 4 4 3 2 3 5 3 3 2 6 3 4 6 1 5 6 3 3 4 3 2 3
8 7 8 9 9 10 12 13 13 5 5 6 3 2 2 5 3 2 2 4 4 3 2 3 2 4 4 3 4 3 4 3 4 6 3 4 3 5 11 5 4 5 6 6 3 5 3
11 12 12 12 10 9 10 11 11 6 6 5 3 4 6 10 3 3 4 4 4 3 4 2 3 6 1 2 3 5 4 3 7 6 4 3 2 5 10 4 1 3 4 4 3 1 5
11 12 14 15 16 15 11 11 10 8 5 7 4 2 4 10 5 2 1 4 4 7 5 4 4 3 2 3 5 6 3 2 4 5 3 2 3 7 7 13 2 11 10 7 6 3 6
7 10 7 11 14 15 15 14 10 8 6 7 7 5 4 3 5 7 6 2 2 3 2 2 2 4 4 3 4 5 4 4 3 5 4 3 5 4 12 19 17 17 18 14 10 14 8
10 9 8 9 12 13 13 11 12 9 6 10 4 4 4 5 7 6 8 5 5 4 5 4 5 9 3 5 7 13 13 4 7 1 4 2 4 4 8 7 3 9 11 9 7 5 10
11 11 11 12 12 12 13 11 10 9 8 5 8 11 4 6 2 1 5 6 5 3 8 14 5 5 6 11 20 21 19 19 16 7 7 4 3 4 6 6 10 4 4 3 3 5 5
12 12 13 15 14 11 13 11 9 12 10 10 10 11 4 4 5 4 7 12 13 16 9 22 22 6 12 26 24 22 26 27 19 14 15 5 4 3 5 7 3 4 2 4 5 6 6
13 13 15 15 13 16 13 12 10 11 12 12 11 9 4 4 12 11 12 10 10 18 19 21 27 28 17 17 4 7 5 4 2 2 6 6 4 2 3 3 7 3 3 4 4 4 2
15 17 18 16 16 12 12 13 12 11 11 13 13 12 10 5 8 22 20 19 9 9 12 22 30 30 23 5 3 4 4 4 4 2 6 4 3 4 0 3 4 2 2 3 2 4 3
14 14 15 14 14 14 15 15 12 13 15 17 19 13 12 12 21 26 9 7 7 9 5 10 8 2 9 3 4 5 7 5 5 6 5 4 2 8 5 4 8 5 4 4 0 4 4
8 7 9 10 10 9 10 11 15 17 17 16 20 19 20 21 28 24 23 24 21 17 6 5 7 3 1 4 3 4 5 5 4 4 7 9 8 4 4 4 8 9 5 4 2 2 5
8 11 12 12 13 13 17 19 20 22 21 19 22 22 23 29 25 15 19 30 39 41 25 15 12 4 4 2 2 2 4 2 4 4 1 3 7 5 9 6 3 7 5 5 3 4 6
Wind_Direction
20 15 12 9 7 6 7 8 5 4 1 3 1 356 349 344 337 329 319 311 310 313 314 315 321 331 352 356 354 356 354 351 10 25 20 24 27 7 355 312 310 230 292 313 307 305 299
15 9 7 5 1 356 353 352 352 350 350 352 353 351 348 345 339 328 320 315 309 309 313 315 317 328 333 236 354 346 347 351 0 12 18 350 329 322 278 267 281 304 304 298 297 297 294
13 5 3 360 357 350 346 347 346 344 345 349 348 350 349 345 342 335 324 318 313 311 310 309 308 316 298 199 335 335 343 346 348 351 356 359 333 324 307 296 305 295 287 297 290 329 289
10 2 358 354 352 348 346 344 344 341 341 342 346 346 347 347 343 340 335 326 318 312 306 299 296 299 269 252 315 328 336 342 340 326 320 338 327 292 240 296 306 313 351 350 322 345 292
15 14 9 3 358 350 342 340 341 337 337 340 342 343 345 347 345 341 339 331 319 316 312 299 279 302 277 248 298 319 332 342 0 2 305 295 294 275 293 294 354 359 292 311 316 321 297
1 4 3 4 4 359 352 342 338 337 339 338 342 342 342 344 345 345 344 338 332 333 346 341 291 308 252 306 300 312 318 341 346 345 358 290 257 348 347 70 262 270 290 265 273 279 293
340 347 352 355 353 354 354 349 343 336 336 337 342 344 342 342 344 350 354 359 347 322 319 267 276 275 292 298 304 297 313 334 332 343 8 303 16 260 256 244 266 281 261 268 285 274 291
309 320 330 335 344 347 346 346 347 343 336 335 337 343 343 344 342 353 3 49 26 327 313 296 291 271 278 294 286 303 297 332 354 307 332 355 246 266 265 270 287 278 283 286 288 279 311
289 293 308 312 318 329 338 341 343 344 344 339 336 337 339 346 339 349 13 25 358 329 286 293 267 282 278 273 277 284 268 306 254 297 282 215 250 310 281 294 309 280 246 269 272 323 270
276 286 289 294 299 308 319 329 336 340 344 348 343 338 333 350 350 346 355 353 346 335 46 251 236 234 254 267 271 258 256 281 305 292 308 247 276 279 308 286 250 288 294 286 305 336 293
261 265 273 277 284 290 299 312 322 333 341 346 348 340 335 340 339 326 332 338 339 337 22 241 215 232 234 244 313 234 238 207 222 248 76 260 276 297 276 232 54 243 325 279 283 275 297
271 262 269 268 277 284 285 290 298 308 328 342 341 342 330 320 328 321 331 337 342 43 264 333 144 267 268 198 243 237 276 250 266 274 220 247 241 257 221 56 32 326 323 297 249 255 259
281 274 261 263 271 280 283 275 280 287 307 327 335 332 326 319 313 307 324 323 32 127 308 329 293 186 241 235 224 186 209 270 221 21 344 315 252 255 174 313 356 14 307 334 347 353 242
305 298 289 274 269 266 274 266 275 285 299 313 323 325 322 309 302 286 320 43 114 251 260 333 331 285 241 238 226 186 281 281 229 159 48 58 326 198 172 200 186 215 163 218 279 293 281
341 330 322 314 302 280 269 270 273 270 284 294 309 309 318 294 291 207 126 63 210 201 270 356 325 348 302 296 223 196 214 239 219 178 171 337 268 268 202 154 149 203 229 194 258 248 271
321 331 337 338 329 323 312 284 274 272 275 283 291 308 300 276 232 168 96 241 252 229 285 75 246 197 289 293 309 130 252 212 249 196 166 270 297 243 318 124 224 173 307 307 254 302 282
282 303 321 333 335 332 333 330 293 296 279 281 303 297 272 212 180 167 181 237 278 290 244 172 240 283 270 287 257 275 267 279 205 185 170 173 169 284 308 203 196 140 243 215 251 221 302
272 284 300 310 321 333 341 342 343 287 308 267 268 264 243 168 187 213 191 207 288 268 234 267 241 231 232 291 273 268 253 249 181 160 212 226 211 273 244 235 220 194 216 186 149 276 241
278 276 269 283 300 311 322 335 346 305 264 238 225 262 257 194 224 213 280 291 277 278 224 229 254 215 178 259 312 235 269 258 185 170 203 190 279 314 329 6 337 222 214 215 234 231 222
300 288 282 283 278 279 288 305 322 337 254 236 265 291 235 206 241 151 246 255 258 288 253 212 254 224 244 273 231 280 268 296 246 239 201 167 227 203 234 264 305 285 263 248 208 230 252
298 311 293 302 297 290 278 274 290 305 308 232 217 244 246 224 233 200 189 256 282 309 259 245 284 226 213 287 298 241 264 291 256 227 182 174 251 239 254 264 272 268 273 273 215 238 228
278 308 300 311 309 293 298 280 263 280 299 242 267 240 225 261 271 171 192 214 210 218 215 264 219 262 205 216 226 285 290 283 249 122 185 194 270 323 292 271 229 276 269 250 235 232 245
257 265 285 308 300 298 300 289 262 262 275 269 252 268 304 238 265 249 202 206 231 355 273 246 304 313 285 251 269 272 275 259 244 202 200 195 203 352 270 322 309 298 251 224 265 210 211
255 264 282 298 295 292 299 275 279 245 260 265 273 290 298 259 251 237 276 287 291 285 257 287 298 249 276 297 300 290 279 262 249 233 204 179 162 169 282 328 321 244 218 202 224 269 256
269 272 282 291 286 283 275 251 267 253 251 252 264 267 255 265 261 279 272 282 309 298 286 288 285 286 300 288 302 318 313 313 250 205 189 176 144 261 261 274 283 279 213 193 188 274 221
270 275 279 278 281 275 268 261 276 250 247 255 258 257 246 252 236 255 257 271 283 289 295 285 285 275 276 210 175 227 248 302 286 62 43 116 120 173 341 266 260 253 215 166 140 283 189
289 283 280 282 283 271 275 263 254 262 264 271 266 255 251 262 256 253 249 258 235 249 262 285 314 292 211 184 211 225 248 258 264 192 174 143 194 215 214 271 283 240 162 140 189 248 166
315 290 277 281 287 276 254 259 268 271 274 272 271 263 255 265 268 253 254 245 257 267 243 265 333 234 132 170 194 214 212 236 235 202 179 171 166 197 173 209 273 163 120 195 207 188 196
289 286 284 280 277 272 269 268 269 271 274 276 275 266 274 263 256 255 262 256 245 250 255 256 237 269 264 204 233 290 249 243 216 254 123 227 193 181 191 214 241 201 218 207 208 190 191